Location: Marquette
(46.5440°N, 87.3950°W)
Time: 15:16:06
(UTC-04:00)

Daily predictions for brighter satellites

Satellite Brightness Start Highest point End
(mag) Time Altitude Azimuth Time Altitude Azimuth Time Altitude Azimuth
Cosmos 2084 4.2 22:26:34 10° WSW 22:30:25 52° NW 22:34:10 10° NNE
Okean 3 Rocket 4.3 22:26:15 10° SSW 22:30:41 59° WNW 22:35:06 10° N
USA 234 4.0 22:28:55 10° ENE 22:34:21 27° SE 22:39:46 10° S
Cosmos 2016 Rocket 4.0 22:29:05 10° N 22:35:23 82° E 22:41:34 10° S
Cosmos 1328 Rocket 3.8 22:31:13 10° N 22:35:30 53° ENE 22:39:43 10° SSE
Cosmos 1151 Rocket 4.1 22:31:36 10° N 22:35:33 31° ENE 22:39:27 10° SE
Cosmos 1766 Rocket 3.5 22:31:32 10° S 22:35:52 80° E 22:40:14 10° NNE
SPOT 1/Viking Rocket 4.0 22:33:28 10° SE 22:38:22 47° ENE 22:43:18 10° N
Cosmos 1242 Rocket 4.0 22:37:08 10° NNW 22:40:37 38° W 22:44:04 10° SSW
SL-14 R/B 3.7 22:37:15 10° SSE 22:41:02 45° E 22:44:47 10° NNE
Meteor 1-21 Rocket 4.5 22:36:49 10° SSW 22:42:28 76° WNW 22:48:03 10° N
Cosmos 1515 Rocket 3.9 22:39:40 10° N 22:43:53 48° ENE 22:47:59 10° SSE
Cosmos 1356 Rocket 4.2 22:39:42 10° SSW 22:43:55 58° WNW 22:48:12 10° N
Cosmos 468 Rocket 4.3 22:39:48 10° NNW 22:44:54 65° WSW 22:49:58 10° S
MetOp-A 4.2 22:40:53 10° SSE 22:46:15 83° WSW 22:51:38 10° NNW
Cosmos 1674 3.9 22:43:43 10° SSW 22:47:19 43° WNW 22:50:56 10° N
CZ-4C R/B 4.0 22:47:34 10° ESE 22:47:48 10° ESE 22:48:02 10° E
ERS-1 Rocket 3.4 22:43:23 10° S 22:48:22 63° WSW 22:53:24 10° NNW
Cosmos 1603 4.1 22:44:02 10° NNW 22:49:37 60° WSW 22:55:06 10° S
RESURS DK-1 3.2 22:46:13 10° NW 22:50:13 45° WSW 22:54:11 10° S
H-2A R/B 3.7 22:47:48 10° ESE 22:51:01 21° ENE 22:54:12 10° NNE
Cosmos 1743 Rocket 3.7 22:47:25 10° S 22:51:38 53° E 22:55:52 10° NNE
EO 1 Delta rocket 4.0 22:47:18 10° SSE 22:51:52 60° ENE 22:56:34 10° N
USA 245 3.4 22:48:44 10° SSE 22:52:24 82° ENE 22:57:06 10° NNW
ARGOS 3.2 22:47:12 10° SSE 22:52:38 88° ENE 22:58:05 10° NNW
Cosmos 2058 3.9 22:50:47 11° SSE 22:54:14 31° E 22:57:58 10° NNE
Cosmos 1328 3.9 22:50:34 10° S 22:54:33 64° E 22:58:34 10° NNE
Cosmos 1455 3.8 22:51:41 10° NNE 22:54:44 22° ENE 22:57:20 12° ESE
Cosmos 2233 Rocket 4.2 22:52:29 10° N 22:58:37 56° ENE 23:04:08 12° SSE
YAOGAN 11 4.3 22:56:06 10° SSE 23:00:37 83° WSW 23:05:13 10° NNW
Meteor 2-2 Rocket 4.5 22:55:53 10° NNW 23:01:41 77° W 23:07:34 10° S
Cosmos 1943 3.2 22:56:55 10° NNW 23:02:37 89° WSW 23:07:41 13° SSE
Cosmos 2228 Rocket 3.2 22:58:06 10° N 23:02:43 87° W 23:07:15 10° S
Cosmos 371 Rocket 3.6 22:57:57 10° NNW 23:02:44 64° WSW 23:07:23 11° S
Cosmos 540 Rocket 4.2 22:59:27 10° N 23:04:22 42° ENE 23:08:29 14° SE
Cosmos 220 Rocket 4.0 23:00:53 10° SSW 23:05:18 87° ESE 23:09:42 10° NNE
ERBS 3.9 23:13:35 10° WNW 23:16:24 24° SW 23:18:29 14° S
H-2A R/B 2.3 23:17:24 13° S 23:22:16 79° WSW 23:27:46 10° NNW
Lacrosse 5 3.6 23:23:34 10° WNW 23:27:27 22° SW 23:31:05 11° S
Abrixas rocket 3.9 23:26:27 10° W 23:28:52 20° SW 23:29:56 17° S
SPOT 5 3.7 23:24:20 10° S 23:29:03 48° W 23:34:05 10° NNW
H-2A ROCKET BODY 4.2 23:25:44 10° S 23:29:59 19° SE 23:39:52 10° ESE
SL-08 RB Rocket 4.5 23:25:51 11° S 23:30:09 49° W 23:34:39 10° NNW
Sich 1 4.5 23:28:52 17° ESE 23:30:35 22° E 23:33:52 10° NE
Cosmos 2151 3.0 23:27:50 12° S 23:31:51 90° NE 23:36:11 10° N
Landsat 7 3.9 23:35:07 17° S 23:38:43 75° WSW 23:43:30 10° NNW
Cosmos 1626 2.0 23:38:03 18° S 23:40:43 86° E 23:44:28 10° N
SL-19 R/B 4.5 23:35:37 10° NNE 23:40:50 50° E 23:44:39 19° S
Cosmos 1356 3.8 23:38:51 12° SSW 23:41:57 62° WNW 23:45:26 10° N
Cosmos 1703 3.2 23:39:14 18° S 23:42:10 85° E 23:46:12 10° N
Cosmos 1707 Rocket 4.1 23:41:35 10° N 23:45:57 48° ENE 23:48:18 24° SE
deb Chang Zheng 4 4.0 23:42:51 10° NNE 23:47:04 45° E 23:49:17 25° SSE
Tiangong 1 2.8 23:48:15 10° WSW 23:49:35 16° SW 23:49:35 16° SW
Cosmos 1354 Rocket 3.9 23:45:36 10° SSW 23:50:50 84° ESE 23:56:07 10° NNE
Cosmos 2285 Rocket 4.1 23:46:58 10° NNW 23:53:19 76° WSW 23:57:44 21° S
Terra 1.9 23:50:32 22° S 23:53:39 76° WSW 23:58:27 10° NNW
Abrixas 2.0 23:52:46 10° WSW 23:55:27 70° SSE 23:57:27 16° ENE
